Terug naar catalogus

CBERS 1 DEB

ActiefSSO
NORAD 30789·DEBRIS·🇧🇷 Brazil🇨🇳 China

Gelanceerd Oct 14, 1999 vanaf Taiyuan Satellite Launch Center

Loading…

Volgende Passages (komende 24 uur)

TLE

VersSource: Space-Track

Epoch: Sep 13, 2026, 09:27 UTC

1 30789U 99057NY  26256.39429550  .00001880  00000-0  40598-3 0  9991
2 30789  98.6226 307.6167 0006396 151.5275 272.8743 14.59577769 29107

Volg CBERS 1 DEB in realtime met AllMySat

Download on the App Store